Time,TemperatureF,DewpointF,PressureIn,WindDirection,WindDirectionDegrees,WindSpeedMPH,WindSpeedGustMPH,Humidity,HourlyPrecipIn,Conditions,Clouds,dailyrainin,SolarRadiationWatts/m^2,SoftwareType,DateUTC
2013-01-12 00:01:00,59.0,56.0,-100.00,NNE,22,7.0,10.0,89,0.00,,,0.00,0.000000,,2013-01-12 10:01:00,
2013-01-12 00:32:00,59.0,56.0,-100.00,NNE,22,7.0,10.0,89,0.00,,,0.00,0.000000,,2013-01-12 10:32:00,
2013-01-12 00:43:00,59.0,56.0,-100.00,NNE,22,7.0,10.0,89,0.00,,,0.00,0.000000,,2013-01-12 10:43:00,
2013-01-12 00:52:00,59.0,56.0,-100.00,NNE,22,7.0,10.0,89,0.00,,,0.00,0.000000,,2013-01-12 10:52:00,
2013-01-12 01:01:00,59.0,56.0,-100.00,NNE,21,6.0,9.0,89,0.00,,,0.00,0.000000,,2013-01-12 11:01:00,
2013-01-12 01:22:00,59.0,56.0,-100.00,NNE,21,6.0,9.0,89,0.00,,,0.00,0.000000,,2013-01-12 11:22:00,
2013-01-12 01:33:00,59.0,56.0,-100.00,NNE,21,6.0,9.0,89,0.00,,,0.00,0.000000,,2013-01-12 11:33:00,
2013-01-12 01:42:00,59.0,56.0,-100.00,NNE,21,6.0,9.0,89,0.00,,,0.00,0.000000,,2013-01-12 11:42:00,
2013-01-12 01:53:00,59.0,56.0,-100.00,NNE,21,6.0,9.0,89,0.00,,,0.00,0.000000,,2013-01-12 11:53:00,
2013-01-12 02:01:00,58.0,55.0,-100.00,NNE,24,5.0,8.0,89,0.00,,,0.00,0.000000,,2013-01-12 12:01:00,
2013-01-12 02:33:00,58.0,55.0,-100.00,NNE,24,5.0,8.0,89,0.00,,,0.00,0.000000,,2013-01-12 12:33:00,
2013-01-12 02:43:00,58.0,55.0,-100.00,NNE,24,5.0,8.0,89,0.00,,,0.00,0.000000,,2013-01-12 12:43:00,
2013-01-12 02:52:00,58.0,55.0,-100.00,NNE,24,5.0,8.0,89,0.00,,,0.00,0.000000,,2013-01-12 12:52:00,
2013-01-12 03:01:00,59.0,56.0,-100.00,NNE,33,6.0,7.0,90,0.00,,,0.00,0.000000,,2013-01-12 13:01:00,
2013-01-12 03:33:00,59.0,56.0,-100.00,NNE,33,6.0,7.0,90,0.00,,,0.00,0.000000,,2013-01-12 13:33:00,
2013-01-12 03:43:00,59.0,56.0,-100.00,NNE,33,6.0,7.0,90,0.00,,,0.00,0.000000,,2013-01-12 13:43:00,
2013-01-12 03:53:00,59.0,56.0,-100.00,NNE,33,6.0,7.0,90,0.00,,,0.00,0.000000,,2013-01-12 13:53:00,
2013-01-12 04:01:00,58.0,55.0,-100.00,North,3,7.0,9.0,91,0.00,,,0.00,0.000000,,2013-01-12 14:01:00,
2013-01-12 04:33:00,58.0,55.0,-100.00,North,3,7.0,9.0,91,0.00,,,0.00,0.000000,,2013-01-12 14:33:00,
2013-01-12 04:43:00,58.0,55.0,-100.00,North,3,7.0,9.0,91,0.00,,,0.00,0.000000,,2013-01-12 14:43:00,
2013-01-12 04:53:00,58.0,55.0,-100.00,North,3,7.0,9.0,91,0.00,,,0.00,0.000000,,2013-01-12 14:53:00,
2013-01-12 05:01:00,58.0,55.0,-100.00,NNE,14,7.0,9.0,91,0.00,,,0.00,0.000000,,2013-01-12 15:01:00,
2013-01-12 05:23:00,58.0,55.0,-100.00,NNE,14,7.0,9.0,91,0.00,,,0.00,0.000000,,2013-01-12 15:23:00,
2013-01-12 05:33:00,58.0,55.0,-100.00,NNE,14,7.0,9.0,91,0.00,,,0.00,0.000000,,2013-01-12 15:33:00,
2013-01-12 05:43:00,58.0,55.0,-100.00,NNE,14,7.0,9.0,91,0.00,,,0.00,0.000000,,2013-01-12 15:43:00,
2013-01-12 05:53:00,58.0,55.0,-100.00,NNE,14,7.0,9.0,91,0.00,,,0.00,0.000000,,2013-01-12 15:53:00,
2013-01-12 06:01:00,58.0,55.0,-100.00,North,6,7.0,9.0,90,0.00,,,0.00,0.000000,,2013-01-12 16:01:00,
2013-01-12 06:33:00,58.0,55.0,-100.00,North,6,7.0,9.0,90,0.00,,,0.00,0.000000,,2013-01-12 16:33:00,
2013-01-12 06:43:00,58.0,55.0,-100.00,North,6,7.0,9.0,90,0.00,,,0.00,0.000000,,2013-01-12 16:43:00,
2013-01-12 06:53:00,58.0,55.0,-100.00,North,6,7.0,9.0,90,0.00,,,0.00,0.000000,,2013-01-12 16:53:00,
2013-01-12 07:01:00,59.0,56.0,-100.00,North,1,5.0,8.0,90,0.00,,,0.00,0.000000,,2013-01-12 17:01:00,
2013-01-12 07:33:00,59.0,56.0,-100.00,North,1,5.0,8.0,90,0.00,,,0.00,0.000000,,2013-01-12 17:33:00,
2013-01-12 07:43:00,59.0,56.0,-100.00,North,1,5.0,8.0,90,0.00,,,0.00,0.000000,,2013-01-12 17:43:00,
2013-01-12 07:53:00,59.0,56.0,-100.00,North,1,5.0,8.0,90,0.00,,,0.00,0.000000,,2013-01-12 17:53:00,
2013-01-12 08:01:00,64.0,58.0,-100.00,North,3,4.0,8.0,80,0.00,,,0.00,74.000000,,2013-01-12 18:01:00,
2013-01-12 08:33:00,64.0,58.0,-100.00,North,3,4.0,8.0,80,0.00,,,0.00,74.000000,,2013-01-12 18:33:00,
2013-01-12 08:43:00,64.0,58.0,-100.00,North,3,4.0,8.0,80,0.00,,,0.00,74.000000,,2013-01-12 18:43:00,
2013-01-12 08:52:00,64.0,58.0,-100.00,North,3,4.0,8.0,80,0.00,,,0.00,74.000000,,2013-01-12 18:52:00,
2013-01-12 09:01:00,68.0,58.0,-100.00,NE,52,4.0,9.0,70,0.00,,,0.00,243.000000,,2013-01-12 19:01:00,
2013-01-12 09:23:00,68.0,58.0,-100.00,NE,52,4.0,9.0,70,0.00,,,0.00,243.000000,,2013-01-12 19:23:00,
2013-01-12 09:33:00,68.0,58.0,-100.00,NE,52,4.0,9.0,70,0.00,,,0.00,243.000000,,2013-01-12 19:33:00,
2013-01-12 09:43:00,68.0,58.0,-100.00,NE,52,4.0,9.0,70,0.00,,,0.00,243.000000,,2013-01-12 19:43:00,
2013-01-12 09:52:00,68.0,58.0,-100.00,NE,52,4.0,9.0,70,0.00,,,0.00,243.000000,,2013-01-12 19:52:00,
2013-01-12 10:01:00,66.0,62.0,-100.00,South,176,6.0,9.0,87,0.00,,,0.00,251.000000,,2013-01-12 20:01:00,
2013-01-12 10:33:00,66.0,62.0,-100.00,South,176,6.0,9.0,87,0.00,,,0.00,251.000000,,2013-01-12 20:33:00,
2013-01-12 10:43:00,66.0,62.0,-100.00,South,176,6.0,9.0,87,0.00,,,0.00,251.000000,,2013-01-12 20:43:00,
2013-01-12 10:53:00,66.0,62.0,-100.00,South,176,6.0,9.0,87,0.00,,,0.00,251.000000,,2013-01-12 20:53:00,
2013-01-12 11:01:00,69.0,62.0,-100.00,SSE,156,9.0,14.0,79,0.00,,,0.00,304.000000,,2013-01-12 21:01:00,
2013-01-12 11:33:00,69.0,62.0,-100.00,SSE,156,9.0,14.0,79,0.00,,,0.00,304.000000,,2013-01-12 21:33:00,
2013-01-12 11:43:00,69.0,62.0,-100.00,SSE,156,9.0,14.0,79,0.00,,,0.00,304.000000,,2013-01-12 21:43:00,
2013-01-12 11:53:00,69.0,62.0,-100.00,SSE,156,9.0,14.0,79,0.00,,,0.00,304.000000,,2013-01-12 21:53:00,
2013-01-12 12:01:00,69.0,60.0,-100.00,SE,125,8.0,15.0,74,0.00,,,-99.99,402.000000,,2013-01-12 22:01:00,
2013-01-12 12:33:00,69.0,60.0,-100.00,SE,125,8.0,15.0,74,0.00,,,-99.99,402.000000,,2013-01-12 22:33:00,
2013-01-12 12:43:00,69.0,60.0,-100.00,SE,125,8.0,15.0,74,0.00,,,-99.99,402.000000,,2013-01-12 22:43:00,
2013-01-12 12:53:00,69.0,60.0,-100.00,SE,125,8.0,15.0,74,0.00,,,-99.99,402.000000,,2013-01-12 22:53:00,
2013-01-12 13:01:00,70.0,61.0,-100.00,SSE,150,12.0,18.0,72,0.00,,,0.00,661.000000,,2013-01-12 23:01:00,
2013-01-12 13:33:00,70.0,61.0,-100.00,SSE,150,12.0,18.0,72,0.00,,,0.00,661.000000,,2013-01-12 23:33:00,
2013-01-12 13:43:00,70.0,61.0,-100.00,SSE,150,12.0,18.0,72,0.00,,,0.00,661.000000,,2013-01-12 23:43:00,
2013-01-12 13:53:00,70.0,61.0,-100.00,SSE,150,12.0,18.0,72,0.00,,,0.00,661.000000,,2013-01-12 23:53:00,
2013-01-12 14:01:00,67.0,61.0,-100.00,SE,137,10.0,17.0,82,0.00,,,0.00,341.000000,,2013-01-13 00:01:00,
2013-01-12 14:33:00,67.0,61.0,-100.00,SE,137,10.0,17.0,82,0.00,,,0.00,341.000000,,2013-01-13 00:33:00,
2013-01-12 14:43:00,67.0,61.0,-100.00,SE,137,10.0,17.0,82,0.00,,,0.00,341.000000,,2013-01-13 00:43:00,
2013-01-12 14:53:00,67.0,61.0,-100.00,SE,137,10.0,17.0,82,0.00,,,0.00,341.000000,,2013-01-13 00:53:00,
2013-01-12 15:01:00,68.0,61.0,-100.00,SSE,158,9.0,16.0,79,0.00,,,0.00,389.000000,,2013-01-13 01:01:00,
2013-01-12 15:33:00,68.0,61.0,-100.00,SSE,158,9.0,16.0,79,0.00,,,0.00,389.000000,,2013-01-13 01:33:00,
2013-01-12 15:43:00,68.0,61.0,-100.00,SSE,158,9.0,16.0,79,0.00,,,0.00,389.000000,,2013-01-13 01:43:00,
2013-01-12 15:53:00,68.0,61.0,-100.00,SSE,158,9.0,16.0,79,0.00,,,0.00,389.000000,,2013-01-13 01:53:00,
2013-01-12 16:01:00,67.0,60.0,-100.00,SSE,150,8.0,15.0,78,0.00,,,0.00,316.000000,,2013-01-13 02:01:00,
2013-01-12 16:23:00,67.0,60.0,-100.00,SSE,150,8.0,15.0,78,0.00,,,0.00,316.000000,,2013-01-13 02:23:00,
2013-01-12 16:33:00,67.0,60.0,-100.00,SSE,150,8.0,15.0,78,0.00,,,0.00,316.000000,,2013-01-13 02:33:00,
2013-01-12 16:43:00,67.0,60.0,-100.00,SSE,150,8.0,15.0,78,0.00,,,0.00,316.000000,,2013-01-13 02:43:00,
2013-01-12 16:53:00,67.0,60.0,-100.00,SSE,150,8.0,15.0,78,0.00,,,0.00,316.000000,,2013-01-13 02:53:00,
2013-01-12 17:01:00,66.0,60.0,-100.00,SE,124,8.0,16.0,82,0.00,,,0.00,196.000000,,2013-01-13 03:01:00,
2013-01-12 17:22:00,66.0,60.0,-100.00,SE,124,8.0,16.0,82,0.00,,,0.00,196.000000,,2013-01-13 03:22:00,
2013-01-12 17:33:00,66.0,60.0,-100.00,SE,124,8.0,16.0,82,0.00,,,0.00,196.000000,,2013-01-13 03:33:00,
2013-01-12 17:43:00,66.0,60.0,-100.00,SE,124,8.0,16.0,82,0.00,,,0.00,196.000000,,2013-01-13 03:43:00,
2013-01-12 17:53:00,66.0,60.0,-100.00,SE,124,8.0,16.0,82,0.00,,,0.00,196.000000,,2013-01-13 03:53:00,
2013-01-12 18:01:00,64.0,62.0,-100.00,SE,139,8.0,14.0,94,0.00,,,0.00,50.000000,,2013-01-13 04:01:00,
2013-01-12 18:33:00,64.0,62.0,-100.00,SE,139,8.0,14.0,94,0.00,,,0.00,50.000000,,2013-01-13 04:33:00,
2013-01-12 18:43:00,64.0,62.0,-100.00,SE,139,8.0,14.0,94,0.00,,,0.00,50.000000,,2013-01-13 04:43:00,
2013-01-12 18:52:00,64.0,62.0,-100.00,SE,139,8.0,14.0,94,0.00,,,0.00,50.000000,,2013-01-13 04:52:00,
2013-01-12 19:01:00,63.0,61.0,-100.00,East,92,3.0,9.0,92,0.00,,,-99.99,1.000000,,2013-01-13 05:01:00,
2013-01-12 19:33:00,63.0,61.0,-100.00,East,92,3.0,9.0,92,0.00,,,-99.99,1.000000,,2013-01-13 05:33:00,
2013-01-12 19:42:00,63.0,61.0,-100.00,East,92,3.0,9.0,92,0.00,,,-99.99,1.000000,,2013-01-13 05:42:00,
2013-01-12 19:53:00,63.0,61.0,-100.00,East,92,3.0,9.0,92,0.00,,,-99.99,1.000000,,2013-01-13 05:53:00,
2013-01-12 20:01:00,62.0,61.0,-100.00,SE,141,2.0,5.0,95,0.00,,,0.00,0.000000,,2013-01-13 06:01:00,
2013-01-12 20:32:00,62.0,61.0,-100.00,SE,141,2.0,5.0,95,0.00,,,0.00,0.000000,,2013-01-13 06:32:00,
2013-01-12 20:42:00,62.0,61.0,-100.00,SE,141,2.0,5.0,95,0.00,,,0.00,0.000000,,2013-01-13 06:42:00,
2013-01-12 20:52:00,62.0,61.0,-100.00,SE,141,2.0,5.0,95,0.00,,,0.00,0.000000,,2013-01-13 06:52:00,
2013-01-12 21:01:00,61.0,60.0,-100.00,NE,46,3.0,9.0,97,0.00,,,-99.99,0.000000,,2013-01-13 07:01:00,
2013-01-12 21:32:00,61.0,60.0,-100.00,NE,46,3.0,9.0,97,0.00,,,-99.99,0.000000,,2013-01-13 07:32:00,
2013-01-12 21:42:00,61.0,60.0,-100.00,NE,46,3.0,9.0,97,0.00,,,-99.99,0.000000,,2013-01-13 07:42:00,
2013-01-12 21:52:00,61.0,60.0,-100.00,NE,46,3.0,9.0,97,0.00,,,-99.99,0.000000,,2013-01-13 07:52:00,
2013-01-12 22:01:00,61.0,60.0,-100.00,North,359,5.0,7.0,97,0.00,,,0.00,0.000000,,2013-01-13 08:01:00,
2013-01-12 22:32:00,61.0,60.0,-100.00,North,359,5.0,7.0,97,0.00,,,0.00,0.000000,,2013-01-13 08:32:00,
2013-01-12 22:42:00,61.0,60.0,-100.00,North,359,5.0,7.0,97,0.00,,,0.00,0.000000,,2013-01-13 08:42:00,
2013-01-12 22:52:00,61.0,60.0,-100.00,North,359,5.0,7.0,97,0.00,,,0.00,0.000000,,2013-01-13 08:52:00,
2013-01-12 23:01:00,61.0,60.0,-100.00,NE,54,2.0,9.0,96,0.06,,,0.06,0.000000,,2013-01-13 09:01:00,
2013-01-12 23:22:00,61.0,60.0,-100.00,NE,54,2.0,9.0,96,0.06,,,0.06,0.000000,,2013-01-13 09:22:00,
2013-01-12 23:32:00,61.0,60.0,-100.00,NE,54,2.0,9.0,96,0.06,,,0.06,0.000000,,2013-01-13 09:32:00,
2013-01-12 23:42:00,61.0,60.0,-100.00,NE,54,2.0,9.0,96,0.06,,,0.06,0.000000,,2013-01-13 09:42:00,
2013-01-12 23:52:00,61.0,60.0,-100.00,NE,54,2.0,9.0,96,0.06,,,0.06,0.000000,,2013-01-13 09:52:00,